Location: Maddington
(51.2000°N, 1.9167°W)
Time: 23:13:57
(UTC+00:00)

USA 234 - Pass Details

Date: 18 September 2020
Orbit: 1102 x 1106 km, 123.0° (Epoch: 16 October)

Event Time Altitude Azimuth Distance (km) Brightness Sun altitude
Rises 22:00:58 0° 62° (ENE) 3,926 6.1 -31.5°
Enters shadow 22:03:22 10° 61° (ENE) 3,003 5.5 -31.7°
Exits shadow 22:06:55 34° 55° (NE) 1,728 4.2 -32.0°
Maximum altitude 22:09:59 75° 338° (NNW) 1,144 3.3 -32.3°
Drops below altitude 10° 22:16:31 10° 254° (WSW) 2,963 5.7 -32.9°
Sets 22:18:59 0° 253° (WSW) 3,919 6.3 -33.1°
